Regional Weather Roundup
Issued by NWS Charleston, SC

Current Version | Previous Version | Graphics & Text | Print | Product List | Glossary On
Versions: 1 2 3 4 5 6 7 8 9 10 11 12 13 14 15 16 17 18 19 20 21 22 23 24 25 26 27 28 29 30 31 32 33 34 35 36 37 38 39 40 41 42 43 44 45 46 47 48 49 50
000 ASUS42 KCHS 211810 RWRCHS REGIONAL WEATHER ROUNDUP NATIONAL WEATHER SERVICE CHARLESTON SC 100 PM EST SUN DEC 21 2014 NOTE: "FAIR" INDICATES FEW OR NO CLOUDS BELOW 12,000 FEET WITH NO SIGNIFICANT WEATHER AND/OR OBSTRUCTIONS TO VISIBILITY. NOT ALL STATIONS ARE QUALITY CONTROLLED BY THE NATIONAL WEATHER SERVICE. USE DATA WITH CAUTION...ESPECIALLY DEWPOINT OBSERVATIONS. SCZ027-030-031-034>040-042>050-211900- ...SOUTHEAST SOUTH CAROLINA... CITY SKY/WX TMP DP RH WIND PRES REMARKS N CHARLESTON CLOUDY 50 40 68 NE10 30.19F 6HR MIN TEMP: 44; 6HR MAX TEMP: 50; 6HR PCP: TRACE; WATERFRONT PRK NOT AVBL MOUNT PLEASANT MOCLDY 50 41 71 N7 30.20F PINOPOLIS N/A 48 41 76 NE9 30.14F MONCKS CORNER FAIR 48 39 71 NE8 30.19F SUMMERVILLE CLOUDY 48 41 76 N10 30.20F BEAUFORT MCAS CLOUDY 49 44 83 NE10 30.17F 6HR MIN TEMP: 47; 6HR MAX TEMP: 50; 6HR PCP: TRACE; BEAUFORT ARPT CLOUDY 50 46 87 NE14 30.16F HILTON HEAD IS DRIZZLE 50 46 87 N9 30.17F WALTERBORO LGT RAIN 48 45 87 NE6 30.19F ALLENDALE MOCLDY 48 43 81 CALM 30.18F ...SOUTHERN MIDLANDS AND PEE DEE... CITY SKY/WX TMP DP RH WIND PRES REMARKS GEORGETOWN NOT AVBL KINGSTREE NOT AVBL ORANGEBURG CLOUDY 52 40 63 VRB6 30.20F 6HR MIN TEMP: 43; 6HR MAX TEMP: 52; BARNWELL MOCLDY 52 41 66 NE9 30.19F AIKEN CLOUDY 54 41 62 E8 30.22F MANNING NOT AVBL COLUMBIA PTSUNNY 54 38 54 E8 30.20F 6HR MIN TEMP: 44; 6HR MAX TEMP: 54; SUMTER NOT AVBL FLORENCE MOSUNNY 55 39 54 NE12 30.22F 6HR MIN TEMP: 40; 6HR MAX TEMP: 55; MYRTLE BEACH CLOUDY 48 37 66 NE10 30.23F N MYRTLE BEACH CLOUDY 48 37 65 NE10 30.21F 6HR MIN TEMP: 40; 6HR MAX TEMP: 48; 6HR PCP: TRACE; $$ GAZ063-065-086>088-099>101-113>116-118-119-134>141-150-211900- ...SOUTHEAST GEORGIA... CITY SKY/WX TMP DP RH WIND PRES REMARKS SAVANNAH ARPT LGT RAIN 49 46 90 N7 30.17F 6HR MIN TEMP: 48; 6HR MAX TEMP: 50; 6HR PCP: 0.01; HUNTER AAF DRIZZLE 50 49 96 N8 30.14F 6HR MIN TEMP: 49; 6HR MAX TEMP: 50; 6HR PCP: TRACE; FORT STEWART CLOUDY 50 48 93 N10 30.13F STATESBORO CLOUDY 48 48 100 NE5 30.17F SYLVANIA CLOUDY 48 45 91 E7 30.18F CLAXTON LGT RAIN 46 46 100 NE9 30.16F ...CSRA...CENTRAL AND FAR SOUTHEAST GEORGIA... CITY SKY/WX TMP DP RH WIND PRES REMARKS THOMSON CLOUDY 55 48 78 E5 30.22F AUGUSTA-BUSH CLOUDY 54 40 59 E8 30.19F 6HR MIN TEMP: 46; 6HR MAX TEMP: 55; AUGUSTA-DANIEL CLOUDY 56 42 59 NE13 30.18F SWAINSBORO RAIN 52 52 100 E7 30.16F VIDALIA CLOUDY 50 48 93 NE8 30.15F EASTMAN CLOUDY 51 51 100 NE3 30.17F HAZLEHURST DRIZZLE 51 51 100 NE5 30.12F ALMA CLOUDY 52 50 93 NE6 30.11F 6HR MIN TEMP: 50; 6HR MAX TEMP: 52; 6HR PCP: 0.03; WAYCROSS CLOUDY 56 55 94 E7 30.12F JESUP CLOUDY 54 52 94 E9 30.13F BAXLEY CLOUDY 52 50 93 NE5 30.13F BRUNSWICK CLOUDY 55 52 88 NE9 30.14F SAINT SIMONS CLOUDY 56 53 90 NE15G22 30.12F 6HR MIN TEMP: 53; 6HR MAX TEMP: 57; 6HR PCP: 0.01; $$ SCZ027-028-034-036>038-045-046-048>050-GAZ119-141-211900- ...LAKE AND SUPPLEMENTAL COASTAL OBSERVATIONS... STATION/POSITION TIME TEMP WIND PRES WAVE SWELL AIR SEA DIR/SP/G HT/PER HT/PER/DIR (UTC) (F) (DEG/KT/KT) (MB) (FT/S) (FT/S/D) UPR LAKE MARION NOT AVBL WINYAH BAY 1700 46 30/ 8 1023.0S LAKE MURRAY 1700 50 60/ 3/ 5 1022.7F ACE BASIN NERRS 1700 48 20/ 4 1022.0F FORT PULASKI 1800 50 56 30/ 9/ 11 1021.3F SAPELO ISLAND 1700 53 30/ 9 1021.0S $$ ANZ835-935-AMZ111-154-330-350-352-354-370-450-454-472-211900- ...C-MAN AND BUOY OBSERVATIONS... STATION/POSITION TIME TEMP WIND PRES WAVE SWELL AIR SEA DIR/SP/G HT/PER HT/PER/DIR (UTC) (F) (DEG/KT/KT) (MB) (FT/S) (FT/S/D) BUOY 41004 1800 60 69 30/ 19/ 23 1020.2F 6/ 6 2/ 9 BUOY 41008 1800 56 59 40/ 19/ 23 1019.5F 6/ 7 2/120/13 FOLLY BEACH CMAN 1700 49 20/ 12/ 14 1023.1F CAPERS NEARSHORE 1700 49 50/ 19/ 25 N/A FRIPP NEARSHORE NOT AVBL STATION/POSITION TIME TEMP WIND PRES WAVE SWELL AIR SEA DIR/SP/G HT/PER HT/PER/DIR (UTC) (F) (DEG/KT/KT) (MB) (FT/S) (FT/S/D) 5E ST. MARYS GA 1800 61 N/A 5/ 6 FRYING PAN BUOY 1800 55 69 40/ 21/ 25 1022.2R 7/ 7 BUOY 41025 1800 52 1024.2F 3/ 4 CAPE LOOKOUT NC 1700 44 20/ 15/ 18 1024.5F BUOY 41002 1728 67 71 100/ 19/ 25 1018.4F 6/ 6 2/100/10 BUOY 41010 1800 75 77 190/ 12/ 14 1018.8F 3/ 9 3/110/ 9 ST AUGUSTINE FL 1800 62 350/ 13/ 14 1018.6F $$

USA.gov is the U.S. government's official web portal to all federal, state and local government web resources and services.